WetterOnline ( http://www.wetteronline.de )

Wetter aktuell Freiburg

Aktuelles Wetter: Freiburg/Flugplatz (236m)

6-stündlich | Neueste Meldungen
Ortszeit Temperatur Wetter
Mi, 20.06. 20:00 28.5° C wolkig
Mi, 20.06. 14:00 27.7° C wolkenlos
Mi, 20.06. 8:00 18.2° C wolkenlos
Mi, 20.06. 2:00 17.5° C wolkenlos
Di, 19.06. 20:00 25.5° C wolkenlos
Di, 19.06. 14:00 24.5° C wolkenlos
Di, 19.06. 8:00 17.3° C bedeckt
Di, 19.06. 2:00 13.9° C wolkenlos
Ortszeit Temperatur Wetter
Do, 21.06. 1:00 19.9° C wolkenlos
Do, 21.06. 0:40 20.2° C wolkenlos
Do, 21.06. 0:30 20.3° C fast wolkenlos
Do, 21.06. 0:20 20.3° C fast wolkenlos
Do, 21.06. 0:10 20.5° C leicht bewölkt
Do, 21.06. 0:00 21.0° C leicht bewölkt
Mi, 20.06. 23:50 21.0° C wolkig
Mi, 20.06. 23:30 22.2° C wolkig
Mi, 20.06. 23:00 21.8° C leicht bewölkt
Mi, 20.06. 22:30 23.2° C leicht bewölkt
Mi, 20.06. 22:00 23.9° C bedeckt
Mi, 20.06. 21:30 25.0° C bewölkt
Ortszeit Relative Feuchte Sichtweite
Mi, 20.06. 20:00 46% 65 km
Mi, 20.06. 14:00 51% 45 km
Mi, 20.06. 8:00 80% 15 km
Mi, 20.06. 2:00 89% 35 km
Di, 19.06. 20:00 49% 60 km
Di, 19.06. 14:00 52% 55 km
Di, 19.06. 8:00 79% 30 km
Di, 19.06. 2:00 89% 30 km
Ortszeit Relative Feuchte Sichtweite
Do, 21.06. 1:00 87% 23 km
Do, 21.06. 0:40 85% -
Do, 21.06. 0:30 83% 26 km
Do, 21.06. 0:20 83% -
Do, 21.06. 0:10 83% -
Do, 21.06. 0:00 80% 40 km
Mi, 20.06. 23:50 80% -
Mi, 20.06. 23:30 74% 40 km
Mi, 20.06. 23:00 76% 45 km
Mi, 20.06. 22:30 70% 45 km
Mi, 20.06. 22:00 72% 35 km
Mi, 20.06. 21:30 67% 55 km
Ortszeit Niederschlagsmenge Niederschlagsart
Mi, 20.06. 20:00 0.0 l/m2 in 12 Std. -
Mi, 20.06. 14:00 0.0 l/m2 in 6 Std. -
Mi, 20.06. 8:00 0.0 l/m2 in 12 Std. -
Mi, 20.06. 2:00 0.0 l/m2 in 6 Std. -
Di, 19.06. 20:00 0.1 l/m2 in 12 Std. Regen, Niederschlag
Di, 19.06. 14:00 0.0 l/m2 in 6 Std. -
Di, 19.06. 8:00 0.0 l/m2 in 12 Std. -
Di, 19.06. 2:00 0.0 l/m2 in 6 Std. -
Ortszeit Niederschlagsmenge Niederschlagsart
Do, 21.06. 1:00 0.0 l/m2 in 1 Std. -
Do, 21.06. 0:40 keine Meldung -
Do, 21.06. 0:30 0.0 l/m2 in 1 Std. -
Do, 21.06. 0:20 keine Meldung -
Do, 21.06. 0:10 keine Meldung -
Do, 21.06. 0:00 0.0 l/m2 in 1 Std. -
Mi, 20.06. 23:50 keine Meldung -
Mi, 20.06. 23:30 0.0 l/m2 in 1 Std. -
Mi, 20.06. 23:00 0.0 l/m2 in 1 Std. -
Mi, 20.06. 22:30 0.0 l/m2 in 1 Std. -
Mi, 20.06. 22:00 0.0 l/m2 in 1 Std. -
Mi, 20.06. 21:30 0.0 l/m2 in 1 Std. -
Ortszeit Stärke Spitze Richtung
km/h Bft. km/h Grad Sektor
Mi, 20.06. 20:00 7 2 22 340° N
Mi, 20.06. 14:00 7 2 18 330° NW
Mi, 20.06. 8:00 4 1 7 340° N
Mi, 20.06. 2:00 6 1 19 30° NO
Di, 19.06. 20:00 11 2 29 340° N
Di, 19.06. 14:00 13 3 20 330° NW
Di, 19.06. 8:00 0 0 7 - -
Di, 19.06. 2:00 4 1 18 320° NW
Ortszeit Stärke Spitze Richtung
km/h Bft. km/h Grad Sektor
Do, 21.06. 1:00 9 2 11 330° NW
Do, 21.06. 0:40 9 2 - 340° N
Do, 21.06. 0:30 4 1 4 210° SW
Do, 21.06. 0:20 4 1 - 210° SW
Do, 21.06. 0:10 4 1 - 190° S
Do, 21.06. 0:00 4 1 7 210° SW
Mi, 20.06. 23:50 4 1 - 210° SW
Mi, 20.06. 23:30 2 1 7 200° S
Mi, 20.06. 23:00 0 0 4 - -
Mi, 20.06. 22:30 4 1 4 180° S
Mi, 20.06. 22:00 0 0 7 - -
Mi, 20.06. 21:30 4 1 7 330° NW
Ortszeit Untergrenze Bedeckung Gattung
total tief tief mittel hoch
Mi, 20.06. 20:00 2400 m 8/8 3/8 - - -
Mi, 20.06. 14:00 - 0/8 0/8 - - -
Mi, 20.06. 8:00 - 0/8 0/8 - - -
Mi, 20.06. 2:00 - 0/8 0/8 - - -
Di, 19.06. 20:00 - 0/8 0/8 - - -
Di, 19.06. 14:00 - 0/8 0/8 - - -
Di, 19.06. 8:00 1380 m 8/8 8/8 - - -
Di, 19.06. 2:00 - 0/8 0/8 - - -
Ortszeit Bedeckungsgrad in Achtel und Wolkenuntergrenze
Do, 21.06. 1:00 keine Wolken
Do, 21.06. 0:40 keine Wolken
Do, 21.06. 0:30 1(2700m)
Do, 21.06. 0:20 1(2700m)
Do, 21.06. 0:10 1(2100m) 2(2700m)
Do, 21.06. 0:00 5(2100m) 3(2700m)
Mi, 20.06. 23:50 5(2100m)
Mi, 20.06. 23:30 5(2100m)
Mi, 20.06. 23:00 3(2100m) 4(2400m)
Mi, 20.06. 22:30 5(2100m) 3(2700m)
Mi, 20.06. 22:00 8(2100m)
Mi, 20.06. 21:30 6(2100m) 7(2400m)
Ortszeit Luftdruck NN (hPa) Tendenz (hPa in 3 Std.)
Mi, 20.06. 20:00 1017 - 0,7
Mi, 20.06. 14:00 1019 - 1,4
Mi, 20.06. 8:00 1022 + 0,1
Mi, 20.06. 2:00 1023 0,0
Di, 19.06. 20:00 1022 - 0,6
Di, 19.06. 14:00 1024 - 0,6
Di, 19.06. 8:00 1025 + 0,7
Di, 19.06. 2:00 1024 + 0,4
Ortszeit Luftdruck NN (hPa) Tendenz (hPa in 3 Std.)
Do, 21.06. 1:00 1018 + 0,2
Do, 21.06. 0:40 1018 keine Meldung
Do, 21.06. 0:30 1018 + 0,4
Do, 21.06. 0:20 1018 keine Meldung
Do, 21.06. 0:10 1018 keine Meldung
Do, 21.06. 0:00 1018 + 0,6
Mi, 20.06. 23:50 1018 keine Meldung
Mi, 20.06. 23:30 1018 + 0,5
Mi, 20.06. 23:00 1018 + 0,4
Mi, 20.06. 22:30 1017 + 0,3
Mi, 20.06. 22:00 1017 - 0,1
Mi, 20.06. 21:30 1017 - 0,3
Ortszeit Schneehöhe (cm)
Mi, 20.06. 20:00 -
Mi, 20.06. 14:00 -
Mi, 20.06. 8:00 -
Mi, 20.06. 2:00 -
Di, 19.06. 20:00 -
Di, 19.06. 14:00 -
Di, 19.06. 8:00 -
Di, 19.06. 2:00 -
Ortszeit Schneehöhe (cm)
Do, 21.06. 1:00 -
Do, 21.06. 0:40 -
Do, 21.06. 0:30 -
Do, 21.06. 0:20 -
Do, 21.06. 0:10 -
Do, 21.06. 0:00 -
Mi, 20.06. 23:50 -
Mi, 20.06. 23:30 -
Mi, 20.06. 23:00 -
Mi, 20.06. 22:30 -
Mi, 20.06. 22:00 -
Mi, 20.06. 21:30 -
Link zu dieser Seite / Seite empfehlen

Das Wetter in ...